Wind_Speed
15 14 13 13 13 13 12 12 11 11 10 11 13 14 14 14 16 18 18 17 16 16 16 14 13 12 11 10 9 8 7 6 6 6 5 5 4 4 4 3 3 2 2
14 13 13 12 13 13 13 12 11 11 11 11 13 14 14 14 15 18 19 18 17 17 16 16 15 13 12 11 10 9 8 7 7 6 6 5 5 5 5 4 4 3 3
13 13 13 12 12 12 12 11 9 8 9 10 12 14 14 14 14 16 19 18 18 18 18 17 16 14 13 12 11 10 9 9 8 8 7 6 6 6 6 6 5 5 5
13 13 14 13 13 12 11 10 8 8 8 10 10 12 13 14 14 16 18 18 18 18 19 18 17 16 15 13 12 11 11 11 10 9 9 8 8 7 7 7 7 7 7
13 13 13 13 12 11 10 10 8 8 8 8 9 11 13 15 16 16 17 19 19 19 19 18 18 17 16 15 14 13 13 12 12 11 11 10 10 9 9 8 8 9 9
13 13 12 12 11 11 10 10 8 8 8 8 9 11 13 14 16 16 17 18 19 20 20 19 19 19 18 17 16 15 14 14 13 13 12 12 12 11 11 10 10 10 11
12 11 10 11 11 10 10 9 8 8 8 9 9 11 12 13 15 16 17 18 18 20 20 20 19 19 19 18 17 16 16 16 15 15 15 14 14 14 14 13 13 13 13
10 9 9 9 9 9 9 8 7 7 7 8 9 11 12 12 14 16 17 18 19 19 20 20 20 20 20 19 18 18 18 17 17 17 17 17 17 17 16 16 16 16 16
8 8 8 8 8 8 7 6 7 7 7 8 9 10 11 13 14 16 16 18 19 20 20 20 20 21 21 21 20 19 19 18 18 18 18 19 19 19 19 18 18 19 19
6 6 6 7 7 7 7 6 6 6 7 8 9 10 11 12 14 15 16 17 19 20 19 21 21 22 22 22 21 21 20 20 20 20 20 20 20 21 21 21 21 22 22
7 6 6 6 7 6 6 6 6 5 6 8 9 10 11 12 13 15 16 17 19 21 21 21 22 22 23 23 22 22 21 21 21 21 21 21 22 22 23 24 24 24 25
7 7 6 6 5 5 6 5 5 5 6 6 8 11 12 12 13 15 16 17 18 20 21 22 22 22 23 23 23 23 22 22 22 23 23 23 24 24 25 25 26 26 26
8 8 7 6 5 5 6 5 5 5 5 6 7 9 11 12 13 14 16 17 19 20 21 22 22 22 21 22 22 23 23 23 24 24 25 24 24 25 26 27 27 28 29
10 9 8 7 7 7 6 6 6 6 6 7 8 9 10 11 13 14 15 16 17 18 20 21 21 21 21 21 22 22 23 24 25 25 25 25 26 26 27 28 29 29 30
11 10 10 9 8 9 8 8 8 8 8 8 9 10 10 11 12 13 15 15 16 17 19 20 21 21 21 21 22 22 23 24 26 27 27 27 27 28 29 30 31 31 31
12 12 12 11 11 11 11 11 10 10 10 10 11 12 12 12 13 14 15 15 16 17 18 19 20 21 21 22 22 23 24 25 25 26 27 27 27 29 30 31 32 34 34
15 14 14 14 14 14 14 13 13 13 12 12 12 12 13 13 13 14 15 16 17 18 19 19 20 20 21 22 23 24 24 25 25 27 28 29 30 32 32 32 33 35 36
18 17 17 17 17 17 17 17 17 16 15 15 14 14 14 15 15 15 16 18 20 21 21 21 22 23 23 23 24 24 25 25 26 28 29 30 31 32 32 33 34 35 37
20 20 21 20 20 20 19 19 19 19 18 17 16 16 17 17 17 17 18 19 20 21 22 22 23 24 25 25 26 27 28 28 28 28 30 31 32 33 33 35 36 37 38
23 23 23 22 22 22 21 21 21 20 19 19 18 18 18 19 20 20 19 20 21 22 23 24 24 24 25 26 26 27 29 29 29 30 31 32 33 34 35 37 39 40 41
24 24 24 24 24 23 23 23 23 22 21 21 21 20 20 20 21 21 21 21 22 23 23 23 23 24 25 26 27 29 30 30 31 32 32 34 36 37 38 39 41 43 44
27 27 26 26 26 26 25 25 24 24 24 23 23 22 22 23 23 23 23 23 24 25 24 24 24 24 25 26 28 29 31 32 33 33 35 36 37 39 41 42 43 44 45
28 28 28 28 28 27 27 26 25 25 25 24 23 23 24 24 25 25 26 27 26 26 26 26 26 27 27 28 29 30 32 33 34 35 36 38 39 40 42 43 44 44 45
27 28 29 28 28 28 27 27 27 26 26 25 25 25 26 26 26 25 26 26 27 27 28 28 27 28 29 30 30 32 34 35 35 36 38 39 41 42 43 43 43 44 45
26 27 27 27 27 27 27 26 26 26 27 26 26 26 27 27 27 27 27 26 27 27 27 28 29 29 29 30 32 35 35 36 37 39 40 41 42 43 42 43 44 45 46
24 24 25 25 26 26 26 26 26 27 27 27 27 27 27 27 27 27 27 28 28 28 28 29 30 31 32 33 34 34 34 35 37 39 41 41 42 42 43 44 45 46 46
Wind_Direction
306 308 308 309 308 306 300 296 283 272 266 252 235 231 230 225 220 216 214 213 211 209 208 207 206 207 207 209 209 205 205 205 205 207 208 213 213 216 215 212 220 229 245
300 305 305 304 303 303 303 299 289 276 265 252 240 233 231 227 220 215 216 216 213 210 211 209 208 208 210 210 211 209 210 209 210 214 215 216 217 221 220 225 233 242 247
294 299 302 301 301 303 303 300 288 270 258 247 240 234 228 225 217 214 216 215 212 212 213 211 210 212 212 213 214 216 216 215 218 221 224 226 225 227 232 240 246 251 253
293 295 298 299 299 299 299 295 284 271 260 244 235 228 222 220 217 215 216 216 216 217 216 215 214 215 217 219 221 221 221 221 223 227 230 232 233 233 238 246 253 256 257
291 295 298 301 301 296 295 292 280 267 256 245 237 227 220 220 219 218 219 218 220 221 219 220 218 218 219 223 224 224 224 225 229 232 233 234 237 238 243 251 256 259 260
286 292 297 301 305 302 294 287 274 263 255 243 236 228 222 223 222 222 222 222 223 222 222 222 221 221 222 225 226 226 228 231 232 234 235 237 241 243 248 252 257 260 263
282 291 298 301 305 304 296 284 270 259 254 244 234 230 227 224 222 222 224 224 224 224 223 222 223 224 224 226 228 230 232 233 235 237 239 242 244 249 253 256 259 262 265
283 291 298 304 306 306 299 283 268 258 252 246 237 233 233 229 224 225 229 229 228 225 223 223 225 226 226 228 231 233 234 236 238 240 243 246 248 252 255 259 262 265 267
289 290 293 301 305 308 306 283 270 262 251 246 239 235 236 233 229 229 232 231 228 225 226 227 228 230 230 231 232 234 237 240 241 243 245 247 251 254 257 260 263 266 268
301 296 295 300 305 312 313 291 280 265 252 248 242 238 238 235 232 230 232 231 228 228 231 229 229 231 232 232 233 236 238 242 244 246 248 250 252 256 258 261 265 268 269
298 303 300 300 302 308 311 301 283 269 262 252 240 237 239 239 235 233 234 234 233 232 232 231 232 233 233 234 235 237 239 243 246 248 250 253 256 259 261 263 267 269 271
293 299 302 301 295 300 308 299 292 279 272 260 246 241 242 240 238 239 238 235 235 234 234 235 234 234 235 238 239 240 243 246 249 252 253 256 258 261 263 265 267 269 271
282 284 292 298 291 297 308 299 291 285 279 269 259 250 247 247 246 245 244 239 236 235 235 236 236 238 239 241 243 245 247 249 251 254 255 257 261 263 265 267 269 270 271
269 270 278 286 284 285 294 301 296 289 284 275 265 260 255 253 252 250 246 242 239 238 238 236 237 240 242 244 246 247 249 251 252 254 256 259 263 266 268 269 271 272 274
264 264 268 274 279 281 282 286 290 285 280 277 271 266 263 261 257 254 248 246 246 244 241 239 241 242 243 245 246 248 251 254 255 257 258 261 265 267 269 271 272 273 274
261 262 263 266 273 275 276 277 283 283 281 279 278 272 271 269 261 255 250 249 248 247 245 243 244 244 244 246 248 249 253 255 257 258 261 264 268 269 270 273 274 274 275
261 261 264 268 273 273 274 276 278 280 281 280 278 275 272 270 263 256 249 248 248 247 247 246 247 248 249 250 252 253 256 259 262 263 264 266 269 270 272 275 276 277 278
260 259 262 267 269 270 270 272 274 275 278 280 275 268 268 267 265 257 253 252 251 249 251 250 250 251 253 255 256 258 261 264 266 267 268 270 272 274 277 278 277 279 281
260 260 262 266 268 269 270 271 270 272 274 275 271 265 263 262 260 258 255 255 254 255 255 256 255 256 258 259 260 262 263 265 267 269 271 272 274 276 278 279 281 282 283
261 262 263 265 267 268 268 271 269 269 269 270 268 266 263 262 260 258 256 254 254 258 261 259 259 261 261 260 261 263 264 266 269 271 274 276 279 281 281 282 283 284 285
260 261 262 263 265 267 269 272 271 269 268 267 264 262 264 264 262 261 259 257 258 260 262 262 263 263 264 264 264 266 267 269 272 273 276 279 282 283 284 285 285 287 287
260 260 261 262 262 264 268 271 269 268 266 265 263 261 262 263 263 262 262 261 260 260 262 263 264 266 267 268 266 266 268 271 274 275 278 280 282 284 286 287 288 289 289
260 260 261 262 262 263 266 268 269 268 265 263 263 262 261 262 262 262 263 263 262 262 263 263 265 267 268 269 269 269 271 274 276 278 281 283 285 287 288 289 288 288 289
258 259 260 260 260 262 264 266 268 267 264 262 261 262 262 261 261 262 262 262 261 262 262 263 267 270 273 272 273 276 277 277 279 283 285 286 287 288 289 289 289 290 291
257 257 257 257 258 258 261 264 265 264 263 261 261 263 261 262 263 262 262 263 263 263 265 267 269 271 274 276 278 281 281 282 283 284 285 286 288 288 289 291 292 293 295
254 255 255 257 257 257 260 263 263 263 262 261 263 263 263 262 262 262 265 268 269 269 272 273 274 274 276 280 281 282 283 286 287 287 288 289 290 291 292 293 295 297 298
Height
5868 5865 5863 5862 5860 5859 5858 5857 5856 5856 5856 5858 5859 5861 5862 5863 5866 5868 5870 5873 5876 5878 5880 5882 5884 5886 5887 5889 5890 5891 5892 5893 5894 5895 5895 5896 5896 5897 5897 5897 5897 5897 5897
5866 5863 5861 5860 5858 5856 5855 5854 5853 5853 5854 5855 5856 5858 5860 5861 5863 5866 5868 5871 5873 5876 5878 5880 5882 5884 5886 5887 5888 5890 5891 5892 5893 5894 5895 5895 5896 5896 5896 5897 5897 5897 5897
5863 5861 5860 5858 5856 5855 5854 5852 5851 5851 5851 5852 5854 5856 5857 5859 5861 5863 5866 5869 5871 5873 5876 5878 5880 5882 5884 5886 5887 5888 5890 5891 5892 5893 5894 5894 5895 5895 5896 5896 5896 5896 5896
5861 5859 5858 5856 5854 5853 5852 5851 5850 5849 5849 5849 5851 5853 5855 5857 5859 5861 5864 5866 5869 5871 5873 5876 5878 5880 5882 5884 5885 5887 5888 5889 5890 5891 5892 5893 5893 5894 5894 5895 5895 5895 5894
5858 5856 5855 5854 5852 5851 5850 5849 5848 5848 5848 5848 5849 5851 5853 5855 5857 5859 5862 5864 5866 5868 5871 5873 5876 5878 5880 5882 5883 5885 5886 5887 5888 5889 5890 5891 5891 5892 5892 5893 5893 5893 5893
5855 5854 5852 5851 5850 5849 5847 5846 5846 5846 5846 5846 5848 5849 5851 5852 5854 5856 5859 5861 5863 5865 5868 5870 5873 5875 5877 5879 5881 5882 5884 5885 5886 5887 5888 5889 5889 5890 5890 5890 5890 5891 5891
5852 5851 5849 5848 5847 5846 5845 5844 5843 5843 5844 5844 5846 5847 5849 5850 5851 5853 5856 5858 5860 5862 5865 5867 5870 5872 5874 5876 5878 5879 5881 5882 5883 5884 5885 5886 5886 5887 5887 5888 5888 5888 5888
5849 5848 5847 5846 5845 5843 5842 5841 5840 5841 5841 5842 5843 5844 5846 5847 5849 5851 5853 5855 5857 5859 5861 5864 5866 5869 5871 5873 5875 5876 5878 5879 5880 5881 5882 5883 5883 5884 5884 5884 5884 5884 5884
5847 5846 5845 5844 5843 5842 5840 5839 5838 5838 5839 5839 5840 5842 5843 5845 5846 5848 5850 5851 5853 5856 5858 5860 5862 5865 5867 5869 5871 5872 5874 5875 5876 5877 5878 5879 5879 5880 5880 5880 5880 5881 5880
5845 5844 5843 5842 5841 5840 5839 5838 5837 5837 5837 5838 5838 5839 5841 5842 5843 5844 5846 5848 5850 5852 5854 5856 5858 5860 5863 5865 5867 5868 5870 5871 5872 5873 5874 5874 5875 5875 5875 5875 5875 5875 5875
5844 5843 5842 5841 5840 5839 5838 5837 5836 5836 5836 5836 5837 5837 5838 5839 5840 5842 5843 5844 5846 5848 5850 5852 5854 5856 5858 5860 5862 5864 5865 5867 5868 5869 5869 5870 5870 5870 5870 5870 5870 5870 5869
5842 5841 5841 5839 5839 5838 5837 5836 5835 5835 5835 5835 5835 5835 5836 5837 5838 5839 5840 5841 5843 5844 5846 5848 5850 5851 5854 5856 5857 5859 5860 5862 5863 5864 5865 5865 5865 5865 5865 5865 5864 5864 5863
5840 5840 5839 5838 5837 5837 5836 5835 5834 5834 5834 5833 5833 5833 5833 5834 5835 5836 5836 5838 5839 5840 5842 5844 5845 5847 5849 5851 5852 5854 5855 5856 5857 5858 5859 5859 5859 5859 5859 5858 5858 5857 5856
5838 5837 5837 5836 5836 5835 5834 5834 5833 5832 5832 5832 5831 5831 5831 5831 5832 5832 5833 5834 5835 5836 5838 5839 5841 5843 5845 5846 5848 5849 5850 5851 5851 5852 5852 5853 5853 5853 5852 5852 5851 5850 5849
5835 5835 5834 5834 5834 5833 5833 5832 5831 5831 5830 5830 5829 5829 5829 5829 5829 5829 5830 5831 5832 5833 5834 5836 5837 5839 5840 5841 5843 5844 5844 5845 5845 5846 5846 5846 5846 5846 5846 5845 5844 5843 5841
5832 5832 5831 5831 5831 5831 5830 5830 5829 5828 5828 5827 5827 5826 5826 5826 5826 5826 5826 5827 5828 5829 5830 5832 5833 5834 5835 5836 5838 5838 5839 5839 5839 5839 5839 5839 5839 5839 5838 5837 5836 5834 5833
5828 5828 5828 5828 5827 5827 5827 5826 5826 5826 5825 5824 5824 5823 5823 5823 5823 5823 5823 5824 5824 5825 5826 5827 5828 5829 5831 5832 5832 5833 5833 5833 5833 5833 5832 5832 5831 5830 5830 5828 5827 5825 5824
5823 5823 5823 5823 5823 5823 5823 5822 5822 5822 5822 5821 5820 5820 5820 5820 5819 5819 5819 5820 5820 5820 5821 5822 5823 5824 5825 5826 5826 5827 5827 5826 5826 5826 5825 5825 5824 5822 5821 5820 5818 5816 5815
5817 5817 5818 5818 5818 5818 5818 5818 5818 5818 5818 5817 5817 5817 5816 5816 5816 5815 5815 5816 5816 5816 5817 5817 5818 5819 5819 5819 5820 5820 5820 5820 5819 5819 5818 5817 5816 5814 5813 5811 5809 5807 5805
5810 5811 5811 5812 5812 5812 5812 5812 5812 5812 5812 5812 5812 5812 5812 5812 5811 5811 5811 5812 5812 5812 5812 5812 5812 5812 5812 5813 5813 5813 5813 5813 5812 5811 5810 5809 5807 5806 5804 5802 5800 5797 5794
5804 5804 5805 5805 5806 5806 5806 5806 5806 5807 5807 5807 5807 5807 5806 5806 5806 5806 5806 5806 5807 5806 5806 5806 5806 5806 5806 5806 5806 5806 5805 5805 5804 5803 5802 5800 5799 5796 5794 5792 5789 5786 5783
5796 5797 5798 5798 5799 5799 5799 5799 5799 5800 5800 5800 5800 5800 5801 5801 5801 5801 5801 5801 5801 5801 5800 5800 5800 5800 5800 5799 5799 5798 5798 5797 5795 5794 5793 5791 5789 5787 5784 5781 5778 5774 5771
5789 5789 5790 5790 5791 5792 5792 5792 5793 5793 5793 5794 5794 5794 5794 5794 5794 5794 5794 5794 5794 5794 5794 5794 5794 5794 5793 5792 5791 5790 5789 5788 5787 5785 5783 5781 5779 5776 5773 5770 5766 5762 5758
5781 5781 5782 5783 5783 5784 5785 5785 5785 5786 5786 5787 5787 5787 5787 5787 5787 5787 5787 5787 5787 5787 5787 5787 5787 5786 5786 5785 5783 5782 5780 5779 5777 5775 5773 5771 5768 5765 5761 5758 5754 5750 5746
5773 5773 5774 5775 5776 5777 5777 5778 5778 5778 5779 5779 5780 5780 5780 5780 5780 5780 5780 5780 5780 5780 5780 5780 5779 5779 5778 5776 5775 5774 5772 5770 5768 5765 5763 5759 5756 5753 5749 5745 5742 5737 5733
5766 5767 5767 5768 5769 5769 5770 5771 5771 5771 5771 5772 5772 5773 5773 5773 5773 5773 5773 5772 5772 5772 5772 5772 5771 5770 5769 5768 5766 5765 5763 5760 5758 5755 5752 5748 5745 5741 5737 5733 5729 5724 5720